Torna al catalogo

IPM 2/BREEZE-M

AttivoScienzaGEO
NORAD 47242·PAYLOAD·🇷🇺 Russia

Lanciato Dec 14, 2020 da Plesetsk Cosmodrome

Loading…

TLE

AggiornatoSource: Space-Track

Epoca: Sep 13, 2026, 15:07 UTC

1 47242U 20097A   26256.62995771 -.00000096  00000-0  00000-0 0  9990
2 47242   5.5933  75.6017 0083365 282.1180  77.2099  0.95297799 20114

Traccia IPM 2/BREEZE-M in tempo reale con AllMySat

Download on the App Store